Tracking 19477 objects as of 16-Jan-2019
HD Live streaming from Space Station
objects crossing your sky now

UFO 2 (USA 95)

Track UFO 2 (USA 95) now!
UFO 2 (USA 95) is classified as:


NORAD ID: 22787
Int'l Code: 1993-056A
Perigee: 35,785.7 km
Apogee: 35,802.3 km
Inclination: 11.1 °
Period: 1,436.1 minutes
Semi major axis: 42164 km
RCS: Unknown
Launch date: September 3, 1993
Source: United States (US)
Launch site: AIR FORCE EASTERN TEST RANGE (AFETR)
aabbcc
Your satellite tracking list
Your tracking list is empty




NASA's NSSDC Master Catalog

Two Line Element Set (TLE):
1 22787U 93056A   19016.18546282  .00000134  00000-0  00000+0 0  9999
2 22787  11.0969  18.8006 0001959 290.7519 261.1966  1.00270856 91497
Source of the keplerian elements: McCants